Temp
15 15 15 16 16 15 16 15 15 15 15 15 15 15 16 16 16 16 16 16 16 16 16 16 16 15 15 15 15 15 15 15 15 14 13 13 13 13 13 13 13 13
15 15 15 15 16 16 16 16 15 15 15 15 15 16 16 16 17 17 17 17 17 16 16 16 16 16 16 16 16 16 16 15 15 14 14 14 13 13 13 13 13 13
16 16 16 16 16 16 16 16 15 15 15 15 16 16 16 16 17 17 17 16 16 16 16 16 16 16 16 16 16 16 16 16 15 14 14 14 14 13 13 13 13 13
16 16 16 16 16 16 16 16 16 15 15 16 16 16 16 16 16 16 16 16 16 16 16 16 16 16 16 16 16 16 16 16 15 15 15 15 14 14 14 14 13 13
16 16 16 16 16 16 16 16 16 16 16 16 16 16 16 16 16 16 16 16 16 16 16 16 16 16 16 16 16 16 16 16 16 15 15 15 15 15 15 14 14 13
16 16 16 16 16 16 16 16 16 16 16 16 16 16 16 16 16 16 16 16 16 16 16 16 16 16 16 16 16 16 16 16 16 15 15 15 15 15 15 14 14 14
16 16 16 16 16 16 16 16 16 16 16 16 16 16 17 16 16 16 16 16 16 16 16 16 16 16 16 16 16 16 16 16 16 15 15 15 15 15 15 14 14 14
16 16 16 16 16 16 16 16 16 16 16 16 16 16 16 16 16 16 16 16 16 16 16 16 16 16 16 16 16 16 16 16 16 15 15 15 15 15 15 14 14 14
16 16 16 16 16 16 16 16 16 16 16 16 16 16 16 16 16 16 16 16 16 16 16 16 16 16 16 16 16 16 16 16 15 15 15 15 15 15 15 14 14 14
16 16 16 16 16 16 16 16 16 16 16 16 16 16 16 16 16 16 16 16 16 16 16 16 16 16 16 16 16 16 16 15 15 15 15 15 15 15 15 14 14 14
16 16 16 16 16 16 16 16 16 16 16 16 16 16 16 16 16 16 16 16 16 16 16 16 16 16 16 16 16 16 16 15 15 15 15 15 15 15 14 14 14 14
17 16 16 16 16 16 16 16 16 16 16 16 16 16 16 16 16 16 16 16 16 16 16 16 16 16 16 16 15 15 15 15 15 15 15 15 15 14 14 14 14 13
17 17 17 17 17 17 16 16 16 16 16 16 16 16 16 16 16 16 16 16 16 16 16 16 16 16 16 16 15 15 15 15 15 15 15 14 14 14 14 14 13 13
17 17 17 17 17 17 16 16 16 16 16 16 16 16 16 16 16 17 17 16 16 16 16 16 16 16 16 15 15 15 15 15 15 15 14 14 14 14 14 13 13 13
17 17 17 17 17 17 16 16 16 16 16 16 16 16 16 16 16 16 16 16 16 16 16 15 15 16 15 15 15 15 14 14 14 14 14 14 14 14 13 13 13 12
17 17 17 17 17 17 17 17 17 17 16 16 16 16 15 15 16 16 16 16 16 15 15 15 15 15 15 15 14 14 14 14 14 14 14 13 13 13 13 13 12 12
17 17 17 17 17 17 17 17 17 17 16 16 16 15 15 15 15 15 15 15 15 15 15 15 15 15 15 14 14 14 14 14 14 14 13 13 13 13 13 12 12 12
17 17 17 17 17 17 17 17 17 17 16 16 16 15 15 15 15 15 15 15 15 15 15 15 15 14 14 14 14 14 14 14 13 13 13 13 13 12 12 12 11 11
17 17 17 17 17 17 17 17 17 17 17 16 16 16 15 15 14 14 14 14 14 14 14 14 14 14 14 14 14 13 14 14 13 13 13 13 12 12 12 11 11 11
17 17 17 17 17 17 17 17 17 17 17 17 17 16 15 15 14 14 14 14 14 14 14 14 14 14 14 14 13 13 13 13 13 13 13 12 12 11 11 11 10 10
17 17 17 17 18 17 17 17 17 17 17 17 16 16 16 15 15 14 14 14 14 14 14 14 14 14 14 13 13 13 13 13 13 13 12 12 12 11 10 10 10 10
18 17 18 18 17 17 17 17 18 17 17 17 16 16 16 15 15 15 15 14 14 14 14 14 14 14 14 13 13 13 13 13 13 13 12 12 11 11 10 10 9 9
18 18 18 18 18 17 17 18 18 17 17 17 16 16 16 16 15 15 15 15 14 14 14 14 14 14 14 13 13 13 13 13 13 12 12 11 11 11 10 10 9 9
18 18 18 18 18 18 18 18 18 18 17 17 16 16 16 16 16 16 16 15 15 15 14 14 14 14 14 13 13 13 13 13 13 12 11 10 10 10 10 9 9 8
16 17 17 17 17 17 17 17 17 16 16 15 15 15 16 16 16 16 15 15 15 15 14 14 14 14 14 14 13 13 13 13 12 12 11 10 10 10 9 9 8 8
15 15 16 16 16 16 16 16 16 16 16 16 15 15 15 15 15 15 15 15 15 15 15 14 14 14 14 14 13 13 13 12 12 11 11 11 10 10 9 9 8 8
Height
1530 1532 1533 1534 1535 1536 1537 1537 1538 1538 1539 1539 1540 1540 1539 1539 1539 1539 1539 1539 1539 1538 1538 1537 1536 1536 1535 1535 1534 1534 1533 1533 1533 1533 1533 1533 1533 1533 1533 1533 1533 1533
1530 1531 1532 1533 1534 1536 1537 1537 1538 1539 1539 1540 1540 1540 1540 1540 1540 1540 1540 1540 1540 1540 1539 1538 1538 1537 1537 1536 1536 1535 1534 1534 1534 1533 1533 1533 1533 1533 1533 1533 1533 1533
1529 1530 1531 1533 1534 1535 1536 1537 1538 1539 1539 1540 1540 1540 1540 1540 1541 1541 1541 1542 1541 1541 1540 1540 1539 1539 1538 1538 1537 1537 1536 1536 1535 1535 1534 1534 1534 1534 1534 1534 1534 1534
1528 1529 1530 1532 1533 1535 1536 1537 1538 1538 1539 1540 1540 1541 1541 1541 1541 1542 1542 1542 1542 1542 1542 1541 1541 1540 1540 1540 1539 1539 1538 1537 1537 1536 1536 1535 1535 1535 1535 1535 1535 1535
1527 1529 1530 1531 1532 1534 1535 1536 1537 1538 1539 1540 1540 1541 1541 1541 1542 1542 1543 1543 1543 1543 1543 1542 1542 1542 1541 1541 1540 1540 1539 1539 1538 1537 1537 1537 1536 1536 1536 1536 1536 1536
1527 1528 1529 1530 1532 1533 1534 1535 1537 1538 1539 1540 1540 1541 1541 1542 1542 1543 1543 1543 1544 1544 1543 1543 1543 1543 1542 1542 1541 1541 1541 1540 1539 1539 1539 1538 1538 1538 1537 1537 1537 1537
1525 1527 1528 1530 1531 1532 1534 1535 1537 1538 1539 1540 1540 1541 1542 1542 1543 1543 1543 1544 1544 1544 1544 1543 1543 1543 1543 1543 1542 1542 1542 1541 1541 1540 1540 1540 1539 1539 1539 1538 1538 1538
1524 1526 1527 1529 1530 1531 1533 1534 1536 1537 1538 1539 1540 1540 1541 1542 1542 1543 1543 1544 1544 1544 1544 1544 1543 1543 1543 1543 1543 1543 1543 1542 1542 1541 1541 1541 1540 1540 1539 1539 1539 1538
1523 1525 1526 1527 1529 1530 1532 1533 1535 1536 1538 1538 1539 1540 1541 1541 1542 1542 1543 1543 1544 1544 1544 1544 1544 1543 1543 1543 1543 1543 1543 1543 1542 1542 1542 1541 1541 1540 1540 1540 1539 1539
1521 1523 1524 1525 1527 1528 1530 1532 1534 1535 1536 1537 1538 1538 1539 1540 1541 1541 1542 1542 1542 1542 1543 1543 1543 1543 1543 1543 1543 1543 1543 1542 1542 1542 1541 1541 1541 1540 1540 1540 1539 1539
1520 1521 1522 1523 1525 1526 1528 1530 1532 1533 1535 1536 1536 1537 1538 1539 1539 1540 1540 1541 1541 1541 1541 1542 1542 1542 1542 1542 1542 1542 1542 1542 1541 1541 1541 1541 1540 1540 1540 1540 1539 1539
1518 1519 1520 1521 1523 1525 1527 1529 1530 1531 1533 1534 1535 1535 1536 1536 1537 1538 1539 1539 1539 1540 1540 1540 1540 1541 1541 1541 1541 1540 1540 1540 1540 1540 1540 1540 1540 1540 1540 1539 1539 1539
1516 1517 1519 1520 1521 1523 1525 1526 1528 1529 1530 1531 1533 1533 1534 1534 1535 1535 1536 1537 1537 1538 1538 1538 1538 1539 1539 1539 1539 1539 1539 1539 1539 1539 1539 1539 1539 1539 1539 1539 1538 1538
1514 1515 1517 1518 1519 1521 1522 1524 1525 1526 1528 1529 1530 1530 1531 1532 1532 1533 1534 1534 1535 1535 1536 1536 1536 1536 1537 1537 1537 1537 1538 1538 1538 1538 1538 1538 1538 1538 1538 1538 1537 1537
1512 1513 1514 1516 1517 1518 1519 1520 1522 1523 1525 1525 1526 1527 1528 1529 1530 1530 1531 1531 1532 1533 1533 1533 1534 1534 1534 1535 1536 1536 1536 1536 1536 1536 1536 1536 1536 1536 1536 1537 1536 1536
1510 1510 1512 1513 1513 1515 1516 1517 1519 1520 1521 1522 1523 1524 1525 1526 1527 1527 1528 1529 1529 1530 1530 1531 1531 1532 1532 1533 1533 1534 1534 1534 1534 1535 1535 1535 1535 1535 1535 1535 1535 1535
1507 1507 1509 1509 1510 1511 1512 1514 1515 1516 1517 1518 1519 1520 1522 1522 1523 1524 1525 1526 1526 1527 1527 1528 1528 1529 1530 1530 1531 1531 1532 1532 1532 1533 1533 1533 1534 1534 1534 1534 1534 1534
1503 1504 1505 1506 1507 1508 1509 1510 1512 1513 1513 1514 1515 1516 1518 1519 1520 1520 1522 1522 1523 1524 1524 1525 1526 1527 1527 1528 1529 1529 1529 1530 1530 1530 1531 1531 1532 1532 1532 1532 1532 1533
1500 1501 1502 1503 1504 1505 1506 1507 1508 1508 1509 1510 1511 1512 1514 1515 1516 1517 1518 1519 1519 1520 1521 1522 1523 1524 1525 1525 1526 1527 1527 1527 1527 1528 1529 1529 1530 1530 1530 1531 1531 1532
1497 1497 1498 1499 1500 1501 1502 1503 1503 1503 1504 1505 1507 1508 1509 1510 1512 1514 1515 1515 1516 1516 1517 1518 1519 1520 1521 1523 1523 1524 1525 1525 1525 1525 1526 1527 1528 1528 1529 1530 1530 1531
1493 1494 1494 1495 1496 1497 1498 1498 1498 1499 1500 1501 1502 1503 1504 1506 1507 1509 1510 1510 1511 1512 1513 1515 1515 1517 1518 1519 1520 1521 1522 1522 1522 1522 1523 1524 1525 1526 1527 1528 1529 1530
1490 1491 1491 1492 1492 1493 1493 1493 1494 1494 1495 1497 1498 1499 1500 1501 1503 1504 1504 1505 1506 1508 1509 1511 1512 1513 1514 1515 1517 1518 1518 1518 1518 1519 1520 1521 1522 1523 1525 1526 1527 1528
1487 1488 1488 1488 1489 1489 1489 1489 1490 1490 1491 1493 1494 1495 1495 1496 1497 1498 1498 1499 1501 1503 1504 1505 1507 1508 1509 1510 1512 1513 1512 1513 1514 1515 1516 1518 1519 1520 1522 1523 1524 1525
1484 1485 1484 1485 1485 1485 1485 1485 1486 1487 1489 1490 1491 1491 1492 1493 1494 1494 1494 1495 1495 1497 1498 1499 1501 1502 1503 1505 1507 1507 1507 1508 1509 1511 1512 1514 1516 1517 1518 1520 1521 1523
1482 1481 1481 1481 1481 1481 1481 1482 1484 1485 1486 1488 1489 1490 1491 1491 1492 1492 1492 1492 1492 1493 1493 1494 1495 1497 1498 1500 1501 1502 1502 1502 1504 1506 1508 1510 1513 1514 1516 1517 1518 1520
1478 1477 1477 1477 1477 1478 1478 1479 1480 1480 1481 1483 1485 1487 1488 1488 1489 1489 1489 1489 1490 1490 1489 1490 1491 1492 1493 1495 1496 1497 1497 1496 1497 1500 1502 1504 1507 1509 1511 1513 1515 1517
Wind_Speed
13 11 10 10 12 12 12 10 9 8 7 6 5 4 5 7 9 9 10 10 11 11 12 12 12 13 13 13 13 12 12 12 11 10 9 9 10 9 10 10 10 10
14 13 12 12 12 13 12 10 9 9 8 7 6 5 6 7 8 8 8 8 9 10 10 11 12 13 13 14 14 13 13 13 13 11 10 11 11 11 12 11 10 10
17 16 15 14 14 13 12 11 11 10 9 8 7 6 6 6 6 6 6 6 7 8 9 10 11 12 13 13 13 13 14 14 13 12 11 12 12 12 13 12 10 10
18 17 17 16 15 14 14 13 12 12 10 9 8 6 6 5 4 3 3 4 5 6 7 9 10 11 12 12 12 13 13 13 14 13 12 12 12 12 12 11 10 10
20 18 18 17 17 16 16 15 14 13 11 10 9 7 6 4 3 2 1 2 2 3 5 7 9 10 11 11 11 12 12 13 14 14 13 13 12 11 11 10 10 10
21 20 19 18 18 17 17 16 15 14 12 11 11 8 6 5 3 2 1 0 1 2 4 6 7 8 9 10 11 11 11 12 13 13 13 13 12 11 10 9 9 9
22 21 20 19 19 19 18 17 16 15 14 13 12 10 7 6 4 3 2 1 1 2 3 4 5 7 8 9 9 10 10 10 11 12 12 12 11 10 9 8 8 8
22 22 21 20 20 20 20 19 17 16 16 14 14 12 10 8 6 5 4 3 2 2 2 3 4 5 6 7 7 8 8 9 9 9 10 10 10 9 9 8 7 7
22 22 22 22 22 22 21 20 19 18 17 17 16 14 13 11 9 8 7 6 5 4 3 3 3 4 4 5 6 6 6 7 7 7 8 8 9 9 8 7 7 6
23 23 24 24 24 23 23 22 21 20 19 19 18 17 16 14 12 11 11 10 9 7 6 5 4 4 5 5 5 6 6 6 6 6 6 7 8 8 7 7 6 6
25 25 25 26 26 25 24 23 22 21 21 20 20 20 19 18 16 14 14 14 12 10 9 8 7 7 6 6 6 6 6 7 7 6 6 6 6 7 7 6 6 6
26 26 27 27 27 26 25 24 23 23 22 22 22 22 21 21 19 18 17 16 15 13 12 11 11 10 9 9 8 8 8 8 8 7 7 6 6 6 6 6 6 5
27 27 27 27 28 28 27 26 25 24 24 23 23 23 23 23 23 22 20 19 18 17 15 14 14 14 12 12 11 10 10 9 9 9 8 7 7 7 6 6 7 5
28 28 28 28 28 29 29 28 27 26 26 25 25 26 26 26 26 25 24 22 21 20 18 17 17 17 16 14 13 13 12 11 10 10 10 9 8 7 7 6 6 5
28 28 29 28 29 30 31 31 30 29 29 28 28 28 28 28 28 28 27 26 25 23 22 21 20 19 19 17 15 14 14 12 11 11 11 10 9 8 7 6 5 4
28 29 30 30 30 31 32 32 32 31 31 32 31 30 30 29 30 30 30 29 28 26 25 24 23 22 21 19 17 16 16 14 13 12 12 11 9 8 7 6 5 5
28 29 30 31 32 32 32 33 33 33 34 34 34 33 32 31 31 31 31 31 30 29 28 27 25 24 23 21 19 18 18 17 15 13 13 12 10 9 8 7 6 6
30 29 30 31 33 33 33 33 33 34 35 36 36 35 34 33 32 32 32 32 32 32 31 30 28 26 25 24 22 21 20 19 17 15 14 13 12 11 9 8 8 8
32 32 32 32 33 33 34 34 34 35 36 37 37 37 36 35 34 34 33 33 34 34 34 33 31 29 28 26 25 23 22 21 19 17 15 14 13 12 11 9 9 8
33 34 33 34 34 34 34 35 36 37 37 38 38 38 38 38 37 36 36 35 36 36 36 35 34 32 30 29 28 26 24 23 21 19 17 15 14 13 11 10 9 9
33 34 34 34 34 35 36 37 38 38 38 38 38 38 39 39 38 38 38 38 38 38 37 37 36 35 33 32 31 28 27 26 25 22 19 17 16 15 12 11 10 10
32 33 33 33 34 35 36 37 38 39 39 39 38 38 38 38 38 39 40 40 40 39 39 38 38 37 37 35 33 31 30 30 28 25 22 20 18 17 14 13 12 12
34 35 35 35 35 36 36 36 36 37 38 39 39 39 39 38 38 39 40 41 41 41 41 41 39 39 39 39 37 35 35 34 32 28 24 22 20 18 16 15 14 13
36 37 38 39 39 39 38 37 36 36 37 37 38 39 39 38 38 38 38 40 41 41 42 42 41 41 41 41 40 39 39 38 35 30 26 23 21 19 18 17 16 15
38 39 40 41 42 43 42 41 40 38 37 37 38 38 38 37 37 37 38 39 40 40 41 41 42 42 42 43 43 43 43 42 38 33 29 25 22 22 21 20 19 17
37 38 39 40 42 43 43 44 44 41 38 36 36 37 39 40 40 40 40 40 39 40 41 41 41 42 43 44 45 45 46 46 40 35 32 28 25 24 24 23 22 20
Wind_Direction
183 181 184 185 182 179 180 187 185 180 183 182 171 141 103 85 76 69 62 56 51 47 48 51 52 52 52 56 61 67 72 76 79 85 91 92 91 88 84 80 77 73
188 186 187 190 189 187 188 192 192 190 192 192 181 147 111 95 86 78 69 61 54 48 48 49 50 50 49 50 51 52 56 58 60 66 71 73 74 73 72 71 71 70
192 192 192 195 196 195 195 197 197 198 201 202 191 157 124 109 95 85 76 67 57 51 48 47 48 49 47 47 46 45 47 49 52 56 56 57 58 57 58 59 61 65
195 197 197 198 199 199 202 204 203 204 206 208 201 173 143 128 114 100 82 66 57 51 49 47 47 47 46 45 43 40 40 41 44 48 45 44 47 46 48 49 49 53
198 200 199 200 201 202 206 208 208 209 210 214 212 190 162 156 165 156 97 51 42 44 47 45 42 42 41 40 37 35 33 33 36 39 35 34 36 36 38 40 40 42
203 202 201 201 202 204 209 210 211 212 213 219 220 207 186 183 192 189 180 357 356 24 38 38 34 33 32 31 31 28 27 27 28 30 28 26 28 29 30 31 33 36
208 205 203 202 203 207 211 213 214 215 215 222 226 220 209 203 204 212 220 253 305 349 17 23 23 23 22 22 22 21 21 21 21 22 21 19 20 20 22 23 23 26
212 210 207 206 206 209 213 215 217 216 217 225 230 230 228 222 220 229 236 246 270 304 338 354 360 5 8 9 10 10 10 11 12 13 12 11 10 10 11 12 12 14
216 214 213 211 210 212 215 216 218 218 220 226 233 236 238 234 232 241 245 245 251 263 284 305 317 328 340 347 349 350 351 354 357 358 360 1 360 358 360 358 358 1
221 221 219 217 215 215 216 217 218 220 222 227 233 238 242 241 239 243 249 250 250 253 263 277 288 295 303 311 319 323 326 329 332 337 342 347 347 346 345 343 342 343
225 226 226 224 220 218 219 219 219 222 224 227 233 238 242 245 243 242 246 250 252 255 264 273 277 280 283 286 291 299 304 309 311 314 317 323 329 332 331 327 323 325
229 229 230 229 226 223 222 222 221 223 226 228 232 237 241 245 247 245 246 249 252 256 262 270 274 275 275 275 278 284 290 294 298 299 299 301 307 315 318 314 308 307
231 232 232 233 231 228 226 226 224 225 227 228 230 235 239 244 247 249 250 251 253 256 259 265 270 271 270 268 269 274 280 284 288 290 290 289 294 301 307 306 298 292
232 234 235 236 235 233 231 229 228 227 228 230 231 233 236 241 246 249 252 253 254 256 257 260 263 266 266 264 264 267 272 277 281 282 281 280 280 287 294 293 287 280
234 235 237 237 237 237 235 233 231 230 230 232 233 233 235 239 243 246 248 251 252 254 256 257 259 262 264 264 264 266 268 273 276 275 273 270 268 272 278 278 275 270
236 236 238 238 238 239 238 237 234 232 232 234 235 235 236 238 241 243 245 248 250 252 254 256 258 259 261 263 264 265 265 267 271 271 268 263 260 261 262 260 258 254
239 239 239 240 240 241 240 239 238 235 234 235 236 236 237 238 240 241 244 247 249 251 253 255 257 258 259 261 262 263 262 263 266 268 266 261 254 251 250 245 241 238
242 242 242 242 242 242 242 242 241 239 237 236 236 237 237 238 239 241 244 247 249 250 251 253 255 257 258 259 260 261 260 261 263 263 262 257 249 243 238 232 229 229
244 244 244 245 245 245 245 245 244 243 241 240 239 239 238 239 240 241 244 247 249 250 250 251 253 254 256 256 257 258 258 258 259 260 259 254 246 239 230 222 221 223
247 247 247 247 247 247 247 247 246 245 244 243 243 242 240 240 240 242 245 247 249 250 250 250 251 252 253 253 253 255 256 256 256 256 254 249 242 235 225 218 219 222
248 249 250 250 249 249 249 248 248 248 246 245 245 244 243 243 242 243 245 247 249 250 250 250 251 252 252 251 251 252 253 252 251 249 247 241 235 229 221 217 220 222
252 251 252 252 252 252 251 250 250 250 249 248 247 246 246 245 244 244 245 246 247 248 250 251 252 252 251 249 248 249 249 247 244 242 239 234 229 225 220 219 222 226
257 257 256 256 255 255 255 254 253 253 253 252 250 249 247 246 245 245 245 246 246 246 248 250 251 252 251 248 246 245 244 242 239 236 233 229 226 223 221 222 224 228
263 262 262 261 260 259 258 258 258 258 258 258 256 255 253 250 249 249 249 248 247 247 248 249 250 252 251 248 245 243 242 240 236 232 228 223 221 220 221 223 223 226
267 266 266 265 264 263 263 261 259 258 259 260 261 261 261 260 257 255 254 253 251 250 250 250 250 252 252 249 245 242 242 239 231 226 224 220 218 221 220 220 221 224
267 267 267 267 267 267 266 263 261 260 259 260 263 265 265 264 262 260 258 258 257 256 254 253 252 252 251 249 244 241 241 237 228 223 223 220 217 221 221 218 218 221